Fort Myers, FL

3:49 AM EDT on August 24, 2016 (GMT -0400)
Page

Weather History for KFMY - March, 2014

Change the Weather History Date:

Thursday, March 27, 2014

  Actual Average Record
Temperature  
Mean Temperature 63 °F 71 °F  
Max Temperature 73 °F 82 °F 91 °F (1950)
Min Temperature 52 °F 61 °F 44 °F (2013)
Degree Days  
Heating Degree Days 2 0  
Month to date heating degree days 9 21  
Since 1 July heating degree days 178 281  
Cooling Degree Days 0 7  
Month to date cooling degree days 138 149  
Year to date cooling degree days 399 334  
Growing Degree Days 12 (Base 50)    
Moisture  
Dew Point 53 °F    
Average Humidity 70    
Maximum Humidity 89    
Minimum Humidity 57    
Precipitation  
Precipitation 0.00 in 0.09 in 1.35 in (1937)
Month to date precipitation 2.19 2.54  
Year to date precipitation 5.63 6.63  
Sea Level Pressure  
Sea Level Pressure 30.24 in    
Wind  
Wind Speed 8 mph (East)    
Max Wind Speed 17 mph    
Max Gust Speed 24 mph    
Visibility 10 miles    
Events      
T = Trace of Precipitation, MM = Missing Value Source: NWS Daily Summary

Daily Weather History Graph

Daily Weather History Graph

Search for Another Location

Airport or City:

Trip Planner

Search our weather history database for the weather conditions in past years. The results will help you decide how hot, cold, wet, or windy it might be!

Date:

Astronomy

Mar. 27, 2014 Rise Set
Actual Time 7:23 AM EDT 7:42 PM EDT
Civil Twilight 7:00 AM EDT 8:05 PM EDT
Nautical Twilight 6:33 AM EDT 8:32 PM EDT
Astronomical Twilight 6:06 AM EDT 8:59 PM EDT
Moon 4:55 AM EDT (3/27) 4:44 PM EDT (3/27)
Length of Visible Light 13h 04m
Length of Day
12h 18m
Waning Crescent, 13% of the Moon is Illuminated
Mar 27
Waning Crescent
Mar 30
New
Apr 7
First Quarter
Apr 15
Full
Apr 22
Last Quarter

Hourly Weather History & Observations

Time (EDT) Temp. Dew Point Humidity Pressure Visibility Wind Dir Wind Speed Gust Speed Precip Events Conditions
12:53 AM 54.0 °F 44.1 °F 69% 30.25 in 10.0 mi East 6.9 mph - N/A   Clear
1:53 AM 54.0 °F 44.1 °F 69% 30.24 in 10.0 mi East 10.4 mph - N/A   Clear
2:53 AM 54.0 °F 45.0 °F 72% 30.23 in 10.0 mi ENE 6.9 mph - N/A   Clear
3:53 AM 53.1 °F 46.0 °F 77% 30.20 in 10.0 mi ENE 8.1 mph - N/A   Clear
4:53 AM 53.1 °F 46.0 °F 77% 30.21 in 10.0 mi ENE 9.2 mph - N/A   Clear
5:53 AM 53.1 °F 46.9 °F 80% 30.20 in 10.0 mi ENE 10.4 mph - N/A   Clear
6:53 AM 52.0 °F 48.0 °F 86% 30.21 in 10.0 mi ENE 8.1 mph - N/A   Clear
7:53 AM 54.0 °F 48.9 °F 83% 30.23 in 10.0 mi ENE 6.9 mph - N/A   Clear
8:53 AM 57.0 °F 50.0 °F 77% 30.26 in 10.0 mi East 6.9 mph - N/A   Clear
9:53 AM 61.0 °F 52.0 °F 72% 30.31 in 10.0 mi NE 5.8 mph - N/A   Overcast
10:53 AM 64.9 °F 54.0 °F 68% 30.30 in 10.0 mi East 6.9 mph - N/A   Partly Cloudy
11:53 AM 71.1 °F 55.0 °F 57% 30.30 in 10.0 mi East 10.4 mph - N/A   Clear
12:53 PM 71.1 °F 55.0 °F 57% 30.30 in 10.0 mi East 4.6 mph - N/A   Scattered Clouds
1:53 PM 72.0 °F 55.0 °F 55% 30.27 in 10.0 mi ESE 10.4 mph - N/A   Clear
2:53 PM 72.0 °F 55.9 °F 57% 30.27 in 10.0 mi Variable 4.6 mph - N/A   Partly Cloudy
3:53 PM 72.0 °F 55.9 °F 57% 30.25 in 10.0 mi East 11.5 mph - N/A   Clear
4:53 PM 72.0 °F 57.0 °F 59% 30.23 in 10.0 mi East 10.4 mph - N/A   Clear
5:53 PM 71.1 °F 55.9 °F 59% 30.19 in 10.0 mi ESE 15.0 mph 19.6 mph N/A   Clear
6:53 PM 71.1 °F 57.0 °F 61% 30.20 in 10.0 mi East 6.9 mph - N/A   Clear
7:53 PM 70.0 °F 55.9 °F 61% 30.21 in 10.0 mi East 6.9 mph - N/A   Clear
8:53 PM 66.0 °F 59.0 °F 78% 30.21 in 10.0 mi ENE 6.9 mph - N/A   Clear
9:53 PM 64.9 °F 59.0 °F 81% 30.22 in 10.0 mi ENE 8.1 mph - N/A   Clear
10:53 PM 64.0 °F 59.0 °F 84% 30.21 in 10.0 mi ENE 8.1 mph - N/A   Clear
11:53 PM 64.0 °F 60.1 °F 87% 30.21 in 10.0 mi East 4.6 mph - N/A   Clear